This demonstration page uses our WeatherBlox Daily Observations layout. Learn more.

Left ArrowRight Arrow

Hourly Observations for February 24, 2020

Temp ( °F °C ) Dew Point ( °F °C ) Humidity (%) Winds ( mph kmh ) Pressure ( in mb ) Visibility ( mi km ) Precip ( " mm )
12:53 am 00:53 Cloudy 36 2.2 27 -2.8 70 70 W 22 35 29.81 1010 10 16 0.00 0.00
1:53 am 01:53 Cloudy with Light Snow 35 1.7 28 -2.2 76 76 WSW 12 19 29.81 1009 7 11 0.01 0.25
2:39 am 02:39 Cloudy 35 1.7 28 -2.2 76 76 WSW 14 22 29.84 1011 10 16 0.00 0.00
2:53 am 02:53 Cloudy 34 1.1 29 -1.7 82 82 WSW 14 22 29.81 1009 10 16 0.00 0.00
3:29 am 03:29 Cloudy 33 0.6 28 -2.2 82 82 WNW 21 33 29.85 1011 10 16 0.00 0.00
3:36 am 03:36 Cloudy 33 0.6 28 -2.2 82 82 WNW 23 37 29.85 1011 10 16 0.00 0.00
3:53 am 03:53 Windy with Snow Likely 32 0 28 -2.2 85 85 WNW 24 39 29.83 1010 9 14 0.00 0.00
4:17 am 04:17 Windy with Snow Likely 31 -0.6 27 -2.8 85 85 WNW 28 44 29.91 1013 5 8 0.00 0.00
4:22 am 04:22 Windy with Snow Likely 30 -1 27 -3 86 86 WNW 28 44 29.91 1013 2 3 0.00 0.00
4:26 am 04:26 Windy with Snow Likely 30 -1 27 -3 86 86 NW 28 44 29.92 1013 1 1 0.00 0.00
4:44 am 04:44 Mostly Cloudy with Light Snow 29 -1.7 27 -2.8 92 92 WNW 28 44 29.94 1014 1 2 0.00 0.00
4:50 am 04:50 Windy with Snow Likely 28 -2 27 -3 93 93 NW 26 43 29.95 1014 1 2 0.00 0.00
4:53 am 04:53 Windy with Snow Likely 29 -1.7 26 -3.3 89 89 WNW 26 43 29.90 1012 2 3 0.00 0.00
5:12 am 05:12 Windy with Snow Likely 29 -1.7 26 -3.3 89 89 WNW 26 43 29.97 1015 2 3 0.00 0.00
5:51 am 05:51 Windy with Snow Likely 28 -2 27 -3 93 93 NW 28 44 30.00 1016 3 5 0.00 0.00
5:53 am 05:53 Windy with Snow Likely 29 -1.7 26 -3.3 89 89 NW 26 43 29.95 1014 4 6 0.00 0.00
6:53 am 06:53 Cloudy 29 -1.7 24 -4.4 82 82 NW 21 33 30.02 1017 10 16 0.00 0.00
7:05 am 07:05 Cloudy 28 -2.2 24 -4.4 85 85 NW 24 39 30.07 1018 10 16 0.00 0.00
7:53 am 07:53 Partly Cloudy 27 -2.8 23 -5 85 85 NW 21 33 30.07 1018 10 16 0.00 0.00
8:53 am 08:53 Sunny 27 -2.8 22 -5.6 81 81 NW 15 24 30.11 1020 10 16 0.00 0.00
9:53 am 09:53 Sunny 28 -2.2 21 -6.1 75 75 NNW 16 26 30.16 1022 10 16 0.00 0.00
10:53 am 10:53 Mostly Cloudy 30 -1.1 22 -5.6 72 72 N 12 19 30.20 1023 10 16 0.00 0.00
11:53 am 11:53 Mostly Cloudy 31 -0.6 23 -5 72 72 N 18 30 30.22 1024 10 16 0.00 0.00
12:53 pm 12:53 Mostly Cloudy 33 0.6 24 -4.4 70 70 N 17 28 30.23 1024 10 16 0.00 0.00
1:11 pm 13:11 Mostly Cloudy 32 0 22 -5.6 66 66 N 17 28 30.26 1025 10 16 0.00 0.00
1:53 pm 13:53 Partly Cloudy 34 1.1 22 -5.6 61 61 NE 14 22 30.24 1024 10 16 0.00 0.00
2:53 pm 14:53 Mostly Sunny 33 0.6 20 -6.7 58 58 NE 16 26 30.28 1025 10 16 0.00 0.00
3:21 pm 15:21 Mostly Cloudy 32 0 20 -6.7 61 61 NE 10 17 30.33 1027 10 16 0.00 0.00
3:31 pm 15:31 Partly Cloudy 33 0.6 20 -6.7 58 58 NNE 13 20 30.33 1027 10 16 0.00 0.00
3:48 pm 15:48 Mostly Cloudy 32 0 21 -6 64 64 N 13 20 30.35 1028 10 16 0.00 0.00
3:53 pm 15:53 Mostly Cloudy 33 0.6 21 -6.1 61 61 N 12 19 30.33 1027 10 16 0.00 0.00
4:05 pm 16:05 Mostly Cloudy 33 0.6 21 -6.1 61 61 N 10 17 30.35 1028 10 16 0.00 0.00
4:53 pm 16:53 Mostly Cloudy 32 0 21 -6.1 64 64 N 13 20 30.37 1028 10 16 0.00 0.00
5:53 pm 17:53 Mostly Sunny 28 -2.2 21 -6.1 75 75 NE 6 9 30.41 1030 10 16 0.00 0.00
6:53 pm 18:53 Cloudy 27 -2.8 21 -6.1 78 78 Calm 30.45 1031 10 16 0.00 0.00
7:53 pm 19:53 Cloudy 27 -2.8 22 -5.6 81 81 NNW 6 9 30.48 1032 10 16 0.00 0.00
8:53 pm 20:53 Cloudy 26 -3.3 21 -6.1 81 81 NW 6 9 30.50 1033 10 16 0.00 0.00
9:53 pm 21:53 Cloudy 26 -3.3 22 -5.6 84 84 NW 5 7 30.52 1034 10 16 0.00 0.00
10:53 pm 22:53 Cloudy 26 -3.3 21 -6.1 81 81 NW 3 6 30.53 1034 10 16 0.00 0.00
11:53 pm 23:53 Cloudy 24 -4.4 21 -6.1 88 88 WSW 3 6 30.55 1035 10 16 0.00 0.00

Powered by AerisWeather